Overview Statistics Trail Chart Weather Telemetry Raw packets
 

This is the latest recevied weather packets stored in our database for station/object KO4DYK. If no packets are shown the sender has not sent any weather packets the latest 10 day(s).

<< 44 45 46 47 48 49 50 >>
Time Temp. Humidity Pressure Rain* Wind** Luminosity Snow
1788362143 33.89° C 63% 1020.6 hPa 0 mm - 529 W/m² -
1788361853 34.44° C 62% 1020.6 hPa 0 mm - 461 W/m² -
1788361538 34.44° C 63% 1020.6 hPa 0 mm - 443 W/m² -
1788361234 33.89° C 65% 1020.8 hPa 0 mm - 497 W/m² -
1788360928 33.89° C 69% 1020.8 hPa 0 mm - 429 W/m² -
1788360629 33.33° C 66% 1020.7 hPa 0 mm - 383 W/m² -
1788360326 34.44° C 68% 1020.8 hPa 0 mm - 464 W/m² -
1788360025 33.89° C 69% 1020.6 hPa 0 mm - 442 W/m² -
1788359720 32.78° C 72% 1020.6 hPa 0 mm - 410 W/m² -
1788359416 32.78° C 70% 1020.6 hPa 0 mm - 371 W/m² -
1788359111 32.78° C 73% 1020.6 hPa 0 mm - 349 W/m² -
1788358807 32.22° C 73% 1020.7 hPa 0 mm - 324 W/m² -
1788358502 31.67° C 73% 1020.7 hPa 0 mm - 321 W/m² -
1788358201 31.67° C 76% 1020.6 hPa 0 mm - 288 W/m² -
1788357897 31.11° C 74% 1020.7 hPa 0 mm - 296 W/m² -
1788357595 30.56° C 79% 1020.8 hPa 0 mm - 270 W/m² -
1788357292 29.44° C 81% 1020.7 hPa 0 mm - 245 W/m² -
1788356992 28.89° C 78% 1020.8 hPa 0 mm - 230 W/m² -
1788356688 28.33° C 83% 1021.1 hPa 0 mm - 184 W/m² -
1788356387 27.78° C 87% 1020.9 hPa 0 mm - 189 W/m² -
1788356082 26.67° C 91% 1020.9 hPa 0 mm - 178 W/m² -
1788355777 25.56° C 92% 1021 hPa 0 mm - 165 W/m² -
1788355472 25° C 97% 1020.8 hPa 0 mm - 73 W/m² -
1788355167 24.44° C 98% 1020.9 hPa 0 mm - 64 W/m² -
1788354864 23.89° C 99% 1020.9 hPa 0 mm - 58 W/m² -

* Rain latest hour (hover to see other rain measurements)
** Current wind speed in m/s (hover to see current wind gust speed)